Location: Unspecified
(52.4292°N, 19.3359°E)
Time: 11:28:53
(UTC+02:00)

deb Explorer IX - Pass Details

Date: 23 May 2024
Orbit: 510 x 885 km, 38.7° (Epoch: 16 June)

Event Time Altitude Azimuth Distance (km) Brightness Sun altitude
Rises 00:50:21 0° 243° (WSW) 2,846 - -16.9°
Reaches altitude 10° 00:54:06 10° 212° (SSW) 1,858 - -16.9°
Maximum altitude 00:55:41 12° 190° (S) 1,708 - -16.9°
Drops below altitude 10° 00:57:13 10° 167° (SSE) 1,799 - -16.8°
Sets 01:00:41 0° 135° (SE) 2,638 - -16.8°
